Time,TemperatureF,DewpointF,PressureIn,WindDirection,WindDirectionDegrees,WindSpeedMPH,WindSpeedGustMPH,Humidity,HourlyPrecipIn,Conditions,Clouds,dailyrainin,SoftwareType,DateUTC
2013-02-16 00:02:00,40.0,-99.9,29.96,South,172,4.0,7.0,-999,-99.99,,,-99.99,,2013-02-16 05:02:00,
2013-02-16 00:12:00,40.0,-99.9,29.96,South,178,4.0,8.0,-999,-99.99,,,-99.99,,2013-02-16 05:12:00,
2013-02-16 00:22:00,40.0,-99.9,29.95,South,180,4.0,6.0,-999,-99.99,,,-99.99,,2013-02-16 05:22:00,
2013-02-16 00:32:00,40.0,-99.9,29.95,South,182,5.0,7.0,-999,-99.99,,,-99.99,,2013-02-16 05:32:00,
2013-02-16 00:42:00,40.0,-99.9,29.95,South,178,5.0,7.0,-999,-99.99,,,-99.99,,2013-02-16 05:42:00,
2013-02-16 00:52:00,40.0,-99.9,29.95,South,182,4.0,8.0,-999,-99.99,,,-99.99,,2013-02-16 05:52:00,
2013-02-16 01:02:00,40.0,-99.9,29.95,South,172,5.0,7.0,-999,-99.99,,,-99.99,,2013-02-16 06:02:00,
2013-02-16 01:11:00,40.0,-99.9,29.95,South,181,5.0,8.0,-999,-99.99,,,-99.99,,2013-02-16 06:11:00,
2013-02-16 01:22:00,40.0,-99.9,29.95,South,181,5.0,7.0,-999,-99.99,,,-99.99,,2013-02-16 06:22:00,
2013-02-16 01:32:00,41.0,-99.9,29.95,South,181,5.0,8.0,-999,-99.99,,,-99.99,,2013-02-16 06:32:00,
2013-02-16 01:42:00,41.0,-99.9,29.95,South,186,5.0,8.0,-999,-99.99,,,-99.99,,2013-02-16 06:42:00,
2013-02-16 01:52:00,41.0,-99.9,29.95,South,183,5.0,8.0,-999,-99.99,,,-99.99,,2013-02-16 06:52:00,
2013-02-16 02:02:00,41.0,-99.9,29.95,South,187,5.0,9.0,-999,-99.99,,,-99.99,,2013-02-16 07:02:00,
2013-02-16 02:11:00,42.0,-99.9,29.94,South,188,5.0,9.0,-999,-99.99,,,-99.99,,2013-02-16 07:11:00,
2013-02-16 02:22:00,42.0,-99.9,29.94,South,188,4.0,8.0,-999,-99.99,,,-99.99,,2013-02-16 07:22:00,
2013-02-16 02:32:00,41.0,-99.9,29.94,South,185,4.0,8.0,-999,-99.99,,,-99.99,,2013-02-16 07:32:00,
2013-02-16 02:42:00,41.0,-99.9,29.93,South,185,5.0,7.0,-999,-99.99,,,-99.99,,2013-02-16 07:42:00,
2013-02-16 02:53:00,41.0,-99.9,29.93,South,186,4.0,8.0,-999,-99.99,,,-99.99,,2013-02-16 07:53:00,
2013-02-16 03:02:00,41.0,-99.9,29.93,South,182,4.0,6.0,-999,-99.99,,,-99.99,,2013-02-16 08:02:00,
2013-02-16 03:11:00,41.0,-99.9,29.93,South,179,4.0,6.0,-999,-99.99,,,-99.99,,2013-02-16 08:11:00,
2013-02-16 03:22:00,40.0,-99.9,29.92,South,180,4.0,6.0,-999,-99.99,,,-99.99,,2013-02-16 08:22:00,
2013-02-16 03:32:00,40.0,-99.9,29.92,South,186,3.0,5.0,-999,-99.99,,,-99.99,,2013-02-16 08:32:00,
2013-02-16 03:42:00,40.0,-99.9,29.92,South,189,3.0,5.0,-999,-99.99,,,-99.99,,2013-02-16 08:42:00,
2013-02-16 03:52:00,40.0,-99.9,29.91,SSW,192,3.0,5.0,-999,-99.99,,,-99.99,,2013-02-16 08:52:00,
2013-02-16 04:02:00,41.0,-99.9,29.91,SSW,199,3.0,5.0,-999,-99.99,,,-99.99,,2013-02-16 09:02:00,
2013-02-16 04:11:00,41.0,-99.9,29.91,SSW,196,4.0,5.0,-999,-99.99,,,-99.99,,2013-02-16 09:11:00,
2013-02-16 04:21:00,42.0,-99.9,29.90,SSW,204,4.0,5.0,-999,-99.99,,,-99.99,,2013-02-16 09:21:00,
2013-02-16 04:32:00,42.0,-99.9,29.90,SSW,204,4.0,5.0,-999,-99.99,,,-99.99,,2013-02-16 09:32:00,
2013-02-16 04:42:00,42.0,-99.9,29.90,SSW,197,3.0,5.0,-999,-99.99,,,-99.99,,2013-02-16 09:42:00,
2013-02-16 04:52:00,39.0,-99.9,29.89,South,170,4.0,6.0,-999,-99.99,,,-99.99,,2013-02-16 09:52:00,
2013-02-16 05:01:00,39.0,-99.9,29.89,South,169,4.0,5.0,-999,-99.99,,,-99.99,,2013-02-16 10:01:00,
2013-02-16 05:11:00,39.0,-99.9,29.89,South,173,3.0,5.0,-999,-99.99,,,-99.99,,2013-02-16 10:11:00,
2013-02-16 05:22:00,39.0,-99.9,29.89,SSE,168,3.0,4.0,-999,-99.99,,,-99.99,,2013-02-16 10:22:00,
2013-02-16 05:32:00,39.0,-99.9,29.89,South,175,4.0,5.0,-999,-99.99,,,-99.99,,2013-02-16 10:32:00,
2013-02-16 05:42:00,39.0,-99.9,29.89,South,173,4.0,5.0,-999,-99.99,,,-99.99,,2013-02-16 10:42:00,
2013-02-16 05:52:00,39.0,-99.9,29.89,South,177,4.0,5.0,-999,-99.99,,,-99.99,,2013-02-16 10:52:00,
2013-02-16 06:02:00,39.0,-99.9,29.88,SSE,162,4.0,4.0,-999,-99.99,,,-99.99,,2013-02-16 11:02:00,
2013-02-16 06:11:00,39.0,-99.9,29.88,South,182,3.0,6.0,-999,-99.99,,,-99.99,,2013-02-16 11:11:00,
2013-02-16 06:22:00,39.0,-99.9,29.88,South,178,3.0,6.0,-999,-99.99,,,-99.99,,2013-02-16 11:22:00,
2013-02-16 06:32:00,39.0,-99.9,29.88,South,173,3.0,5.0,-999,-99.99,,,-99.99,,2013-02-16 11:32:00,
2013-02-16 06:42:00,39.0,-99.9,29.88,South,184,3.0,5.0,-999,-99.99,,,-99.99,,2013-02-16 11:42:00,
2013-02-16 06:52:00,39.0,-99.9,29.88,South,176,3.0,4.0,-999,-99.99,,,-99.99,,2013-02-16 11:52:00,
2013-02-16 07:02:00,39.0,-99.9,29.88,SSE,167,3.0,4.0,-999,-99.99,,,-99.99,,2013-02-16 12:02:00,
2013-02-16 07:12:00,39.0,-99.9,29.88,SSE,168,4.0,5.0,-999,-99.99,,,-99.99,,2013-02-16 12:12:00,
2013-02-16 07:22:00,39.0,-99.9,29.88,South,172,3.0,5.0,-999,-99.99,,,-99.99,,2013-02-16 12:22:00,
2013-02-16 07:32:00,40.0,-99.9,29.88,SSE,167,3.0,4.0,-999,-99.99,,,-99.99,,2013-02-16 12:32:00,
2013-02-16 07:42:00,40.0,-99.9,29.88,South,189,2.0,5.0,-999,-99.99,,,-99.99,,2013-02-16 12:42:00,
2013-02-16 07:52:00,41.0,-99.9,29.88,South,174,3.0,5.0,-999,-99.99,,,-99.99,,2013-02-16 12:52:00,
2013-02-16 08:02:00,42.0,-99.9,29.88,South,170,3.0,4.0,-999,-99.99,,,-99.99,,2013-02-16 13:02:00,
2013-02-16 08:12:00,43.0,-99.9,29.88,South,173,3.0,5.0,-999,-99.99,,,-99.99,,2013-02-16 13:12:00,
2013-02-16 08:22:00,44.0,-99.9,29.88,South,185,3.0,4.0,-999,-99.99,,,-99.99,,2013-02-16 13:22:00,
2013-02-16 08:32:00,41.0,-99.9,29.90,NW,320,9.0,13.0,-999,-99.99,,,-99.99,,2013-02-16 13:32:00,
2013-02-16 08:42:00,39.0,-99.9,29.91,NNW,341,9.0,18.0,-999,-99.99,,,-99.99,,2013-02-16 13:42:00,
2013-02-16 08:52:00,38.0,-99.9,29.91,North,349,8.0,14.0,-999,-99.99,,,-99.99,,2013-02-16 13:52:00,
2013-02-16 09:01:00,38.0,-99.9,29.90,North,357,10.0,16.0,-999,-99.99,,,-99.99,,2013-02-16 14:01:00,
2013-02-16 09:11:00,38.0,-99.9,29.90,North,4,10.0,15.0,-999,-99.99,,,-99.99,,2013-02-16 14:11:00,
2013-02-16 09:21:00,38.0,-99.9,29.90,North,-999,12.0,15.0,-999,-99.99,,,-99.99,,2013-02-16 14:21:00,
2013-02-16 09:32:00,38.0,-99.9,29.90,North,6,11.0,17.0,-999,-99.99,,,-99.99,,2013-02-16 14:32:00,
2013-02-16 09:42:00,39.0,-99.9,29.90,North,5,10.0,14.0,-999,-99.99,,,-99.99,,2013-02-16 14:42:00,
2013-02-16 09:52:00,38.0,-99.9,29.90,North,8,10.0,15.0,-999,-99.99,,,-99.99,,2013-02-16 14:52:00,
2013-02-16 10:02:00,39.0,-99.9,29.89,North,4,10.0,14.0,-999,-99.99,,,-99.99,,2013-02-16 15:02:00,
2013-02-16 10:11:00,40.0,-99.9,29.89,North,9,11.0,14.0,-999,-99.99,,,-99.99,,2013-02-16 15:11:00,
2013-02-16 10:22:00,40.0,-99.9,29.89,North,9,9.0,13.0,-999,-99.99,,,-99.99,,2013-02-16 15:22:00,
2013-02-16 10:32:00,40.0,-99.9,29.89,NNE,25,6.0,13.0,-999,-99.99,,,-99.99,,2013-02-16 15:32:00,
2013-02-16 10:42:00,40.0,-99.9,29.88,NNE,21,5.0,11.0,-999,-99.99,,,-99.99,,2013-02-16 15:42:00,
2013-02-16 10:52:00,40.0,-99.9,29.89,North,8,8.0,10.0,-999,-99.99,,,-99.99,,2013-02-16 15:52:00,
2013-02-16 11:02:00,40.0,-99.9,29.88,North,357,9.0,13.0,-999,-99.99,,,-99.99,,2013-02-16 16:02:00,
2013-02-16 11:11:00,39.0,-99.9,29.88,North,4,10.0,14.0,-999,-99.99,,,-99.99,,2013-02-16 16:11:00,
2013-02-16 11:22:00,39.0,-99.9,29.89,NNW,348,9.0,16.0,-999,-99.99,,,-99.99,,2013-02-16 16:22:00,
2013-02-16 11:32:00,38.0,-99.9,29.89,North,5,14.0,18.0,-999,-99.99,,,-99.99,,2013-02-16 16:32:00,
2013-02-16 11:42:00,38.0,-99.9,29.88,North,3,11.0,19.0,-999,-99.99,,,-99.99,,2013-02-16 16:42:00,
2013-02-16 11:52:00,38.0,-99.9,29.86,NNE,22,7.0,12.0,-999,-99.99,,,-99.99,,2013-02-16 16:52:00,
2013-02-16 12:01:00,39.0,-99.9,29.86,North,5,11.0,14.0,-999,-99.99,,,-99.99,,2013-02-16 17:01:00,
2013-02-16 12:11:00,39.0,-99.9,29.85,North,6,11.0,14.0,-999,-99.99,,,-99.99,,2013-02-16 17:11:00,
2013-02-16 12:22:00,39.0,-99.9,29.85,North,7,9.0,15.0,-999,-99.99,,,-99.99,,2013-02-16 17:22:00,
2013-02-16 12:32:00,39.0,-99.9,29.84,North,6,12.0,17.0,-999,-99.99,,,-99.99,,2013-02-16 17:32:00,
2013-02-16 12:42:00,39.0,-99.9,29.83,North,6,12.0,17.0,-999,-99.99,,,-99.99,,2013-02-16 17:42:00,
2013-02-16 12:52:00,39.0,-99.9,29.84,North,5,9.0,15.0,-999,-99.99,,,-99.99,,2013-02-16 17:52:00,
2013-02-16 13:02:00,39.0,-99.9,29.83,North,1,11.0,15.0,-999,-99.99,,,-99.99,,2013-02-16 18:02:00,
2013-02-16 13:11:00,39.0,-99.9,29.83,North,5,9.0,14.0,-999,-99.99,,,-99.99,,2013-02-16 18:11:00,
2013-02-16 13:22:00,39.0,-99.9,29.83,North,1,10.0,14.0,-999,-99.99,,,-99.99,,2013-02-16 18:22:00,
2013-02-16 13:33:00,39.0,-99.9,29.83,North,2,10.0,15.0,-999,-99.99,,,-99.99,,2013-02-16 18:33:00,
2013-02-16 13:42:00,39.0,-99.9,29.83,North,4,11.0,15.0,-999,-99.99,,,-99.99,,2013-02-16 18:42:00,
2013-02-16 13:52:00,39.0,-99.9,29.82,North,358,10.0,16.0,-999,-99.99,,,-99.99,,2013-02-16 18:52:00,
2013-02-16 14:02:00,39.0,-99.9,29.81,North,355,10.0,14.0,-999,-99.99,,,-99.99,,2013-02-16 19:02:00,
2013-02-16 14:11:00,38.0,-99.9,29.81,North,355,12.0,17.0,-999,-99.99,,,-99.99,,2013-02-16 19:11:00,
2013-02-16 14:22:00,38.0,-99.9,29.80,North,355,11.0,17.0,-999,-99.99,,,-99.99,,2013-02-16 19:22:00,
2013-02-16 14:32:00,38.0,-99.9,29.80,North,356,12.0,15.0,-999,-99.99,,,-99.99,,2013-02-16 19:32:00,
2013-02-16 14:42:00,38.0,-99.9,29.80,North,358,13.0,17.0,-999,-99.99,,,-99.99,,2013-02-16 19:42:00,
2013-02-16 14:52:00,38.0,-99.9,29.80,North,-999,14.0,19.0,-999,-99.99,,,-99.99,,2013-02-16 19:52:00,
2013-02-16 15:02:00,38.0,-99.9,29.79,North,4,16.0,21.0,-999,-99.99,,,-99.99,,2013-02-16 20:02:00,
2013-02-16 15:11:00,38.0,-99.9,29.79,North,355,12.0,19.0,-999,-99.99,,,-99.99,,2013-02-16 20:11:00,
2013-02-16 15:22:00,38.0,-99.9,29.79,North,356,15.0,19.0,-999,-99.99,,,-99.99,,2013-02-16 20:22:00,
2013-02-16 15:32:00,37.0,-99.9,29.78,North,357,12.0,18.0,-999,-99.99,,,-99.99,,2013-02-16 20:32:00,
2013-02-16 15:42:00,37.0,-99.9,29.78,North,356,11.0,18.0,-999,-99.99,,,-99.99,,2013-02-16 20:42:00,
2013-02-16 15:52:00,37.0,-99.9,29.78,North,358,13.0,20.0,-999,-99.99,,,-99.99,,2013-02-16 20:52:00,
2013-02-16 16:02:00,37.0,-99.9,29.78,North,357,15.0,22.0,-999,-99.99,,,-99.99,,2013-02-16 21:02:00,
2013-02-16 16:11:00,37.0,-99.9,29.78,North,354,14.0,23.0,-999,-99.99,,,-99.99,,2013-02-16 21:11:00,
2013-02-16 16:22:00,37.0,-99.9,29.78,North,2,14.0,19.0,-999,-99.99,,,-99.99,,2013-02-16 21:22:00,
2013-02-16 16:32:00,37.0,-99.9,29.77,North,357,13.0,19.0,-999,-99.99,,,-99.99,,2013-02-16 21:32:00,
2013-02-16 16:42:00,37.0,-99.9,29.78,North,355,16.0,20.0,-999,-99.99,,,-99.99,,2013-02-16 21:42:00,
2013-02-16 16:52:00,37.0,-99.9,29.77,North,1,15.0,21.0,-999,-99.99,,,-99.99,,2013-02-16 21:52:00,
2013-02-16 17:02:00,37.0,-99.9,29.77,North,359,15.0,19.0,-999,-99.99,,,-99.99,,2013-02-16 22:02:00,
2013-02-16 17:11:00,37.0,-99.9,29.77,North,3,15.0,21.0,-999,-99.99,,,-99.99,,2013-02-16 22:11:00,
2013-02-16 17:22:00,37.0,-99.9,29.77,North,7,14.0,21.0,-999,-99.99,,,-99.99,,2013-02-16 22:22:00,
2013-02-16 17:32:00,37.0,-99.9,29.77,North,357,13.0,21.0,-999,-99.99,,,-99.99,,2013-02-16 22:32:00,
2013-02-16 17:42:00,37.0,-99.9,29.78,North,356,12.0,17.0,-999,-99.99,,,-99.99,,2013-02-16 22:42:00,
2013-02-16 17:52:00,37.0,-99.9,29.77,North,350,13.0,20.0,-999,-99.99,,,-99.99,,2013-02-16 22:52:00,
2013-02-16 18:02:00,37.0,-99.9,29.77,North,1,17.0,22.0,-999,-99.99,,,-99.99,,2013-02-16 23:02:00,
2013-02-16 18:11:00,37.0,-99.9,29.77,North,2,17.0,24.0,-999,-99.99,,,-99.99,,2013-02-16 23:11:00,
2013-02-16 18:22:00,37.0,-99.9,29.77,North,360,13.0,21.0,-999,-99.99,,,-99.99,,2013-02-16 23:22:00,
2013-02-16 18:32:00,37.0,-99.9,29.77,North,-999,17.0,21.0,-999,-99.99,,,-99.99,,2013-02-16 23:32:00,
2013-02-16 18:42:00,37.0,-99.9,29.76,North,-999,14.0,22.0,-999,-99.99,,,-99.99,,2013-02-16 23:42:00,
2013-02-16 18:52:00,37.0,-99.9,29.76,North,-999,14.0,18.0,-999,-99.99,,,-99.99,,2013-02-16 23:52:00,
2013-02-16 19:02:00,37.0,-99.9,29.76,North,359,15.0,19.0,-999,-99.99,,,-99.99,,2013-02-17 00:02:00,
2013-02-16 19:12:00,37.0,-99.9,29.76,North,359,14.0,19.0,-999,-99.99,,,-99.99,,2013-02-17 00:12:00,
2013-02-16 19:22:00,37.0,-99.9,29.75,North,358,13.0,20.0,-999,-99.99,,,-99.99,,2013-02-17 00:22:00,
2013-02-16 19:32:00,37.0,-99.9,29.75,North,360,14.0,20.0,-999,-99.99,,,-99.99,,2013-02-17 00:32:00,
2013-02-16 19:42:00,37.0,-99.9,29.75,North,-999,15.0,19.0,-999,-99.99,,,-99.99,,2013-02-17 00:42:00,
2013-02-16 19:52:00,37.0,-99.9,29.74,North,2,17.0,22.0,-999,-99.99,,,-99.99,,2013-02-17 00:52:00,
2013-02-16 20:01:00,37.0,-99.9,29.73,North,1,14.0,19.0,-999,-99.99,,,-99.99,,2013-02-17 01:01:00,
2013-02-16 20:11:00,37.0,-99.9,29.73,North,7,17.0,21.0,-999,-99.99,,,-99.99,,2013-02-17 01:11:00,
2013-02-16 20:22:00,37.0,-99.9,29.72,North,3,16.0,21.0,-999,-99.99,,,-99.99,,2013-02-17 01:22:00,
2013-02-16 20:32:00,37.0,-99.9,29.72,North,2,15.0,21.0,-999,-99.99,,,-99.99,,2013-02-17 01:32:00,
2013-02-16 20:42:00,37.0,-99.9,29.72,North,3,16.0,21.0,-999,-99.99,,,-99.99,,2013-02-17 01:42:00,
2013-02-16 20:52:00,37.0,-99.9,29.72,North,5,17.0,23.0,-999,-99.99,,,-99.99,,2013-02-17 01:52:00,
2013-02-16 21:01:00,38.0,-99.9,29.71,North,5,17.0,24.0,-999,-99.99,,,-99.99,,2013-02-17 02:01:00,
2013-02-16 21:11:00,38.0,-99.9,29.70,North,5,15.0,23.0,-999,-99.99,,,-99.99,,2013-02-17 02:11:00,
2013-02-16 21:21:00,38.0,-99.9,29.70,North,8,16.0,26.0,-999,-99.99,,,-99.99,,2013-02-17 02:21:00,
2013-02-16 21:32:00,38.0,-99.9,29.70,North,6,17.0,23.0,-999,-99.99,,,-99.99,,2013-02-17 02:32:00,
2013-02-16 21:42:00,38.0,-99.9,29.70,North,3,15.0,25.0,-999,-99.99,,,-99.99,,2013-02-17 02:42:00,
2013-02-16 21:52:00,38.0,-99.9,29.70,North,3,16.0,21.0,-999,-99.99,,,-99.99,,2013-02-17 02:52:00,
2013-02-16 22:02:00,37.0,-99.9,29.69,North,357,14.0,19.0,-999,-99.99,,,-99.99,,2013-02-17 03:02:00,
2013-02-16 22:11:00,37.0,-99.9,29.68,North,354,14.0,21.0,-999,-99.99,,,-99.99,,2013-02-17 03:11:00,
2013-02-16 22:21:00,37.0,-99.9,29.68,North,360,16.0,22.0,-999,-99.99,,,-99.99,,2013-02-17 03:21:00,
2013-02-16 22:32:00,37.0,-99.9,29.67,North,-999,17.0,23.0,-999,-99.99,,,-99.99,,2013-02-17 03:32:00,
2013-02-16 22:42:00,37.0,-99.9,29.67,North,3,16.0,22.0,-999,-99.99,,,-99.99,,2013-02-17 03:42:00,
2013-02-16 22:52:00,37.0,-99.9,29.66,North,3,15.0,20.0,-999,-99.99,,,-99.99,,2013-02-17 03:52:00,
2013-02-16 23:01:00,37.0,-99.9,29.65,North,5,16.0,25.0,-999,-99.99,,,-99.99,,2013-02-17 04:01:00,
2013-02-16 23:11:00,37.0,-99.9,29.65,North,8,15.0,22.0,-999,-99.99,,,-99.99,,2013-02-17 04:11:00,
2013-02-16 23:22:00,37.0,-99.9,29.64,North,10,18.0,26.0,-999,-99.99,,,-99.99,,2013-02-17 04:22:00,
2013-02-16 23:32:00,37.0,-99.9,29.62,North,9,16.0,23.0,-999,-99.99,,,-99.99,,2013-02-17 04:32:00,
2013-02-16 23:42:00,37.0,-99.9,29.62,North,4,17.0,27.0,-999,-99.99,,,-99.99,,2013-02-17 04:42:00,
2013-02-16 23:52:00,36.0,-99.9,29.62,North,7,17.0,26.0,-999,-99.99,,,-99.99,,2013-02-17 04:52:00,